User: anonymous   Login
Location: SAPM � Hemmingford
(45.0500°N, 73.5833°W)
Time: 08:01:42
(UTC-05:00)
Language:

Cosmos 1674 Rocket - Orbit

View from above orbital plane
View from above orbital plane
View from above satellite
View from above satellite

Ground track
Ground track

The orbit data is extracted from the following two-line orbital elements,

1 15945U 85069B   14352.30560353  .00000494  00000-0  56920-4 0  8455
2 15945 082.5290 266.8320 0020976 054.6648 071.7418 14.83528698585815
Epoch (UTC): 18 December 2014 07:20:04
Eccentricity: 0.0020976
inclination: 82.5290°
perigee height: 603 km
apogee height: 633 km
right ascension of ascending node: 266.8320°
argument of perigee: 54.6648°
revolutions per day: 14.83528698
mean anomaly at epoch: 71.7418°
orbit number at epoch: 58581

The dashed part of the orbit path shows where the satellite is in the earth's shadow,  

DLR